Regional Weather Roundup
Issued by NWS

Home | Current Version | Previous Version | Text Only | Print | Product List | Glossary Off
Versions: 1 2 3 4 5 6 7 8 9 10 11 12 13 14 15 16 17 18 19 20 21 22 23 24 25 26 27 28 29 30 31 32 33 34 35 36 37 38 39 40 41 42 43 44 45 46 47 48 49 50

000
ASUS43 KFSD 292102
RWRSD

WEATHER ROUNDUP FOR SOUTH DAKOTA
NATIONAL WEATHER SERVICE SIOUX FALLS SD
400 PM CDT TUE JUL 29 2014

NOTE: "FAIR" INDICATES FEW OR NO CLOUDS BELOW 12,000 FEET WITH NO
SIGNIFICANT WEATHER AND/OR OBSTRUCTIONS TO VISIBILITY.


SDZ001>005-009-010-012>017-292200-
NORTHWEST AND NORTH CENTRAL SOUTH DAKOTA

CITY           SKY/WX    TMP DP  RH WIND       PRES   REMARKS
BUFFALO          N/A     84  51  31 SE12      30.15F
FAITH            N/A     80  51  36 E6        30.20F
MOBRIDGE       MOSUNNY   81  54  39 NE10G20   30.16F
$$

SDZ012>016-024>037-041>051-057-063-072>074-292200-
SOUTHWEST AND SOUTH CENTRAL SOUTH DAKOTA

CITY           SKY/WX    TMP DP  RH WIND       PRES   REMARKS
RAPID CTY ARPT CLOUDY    71  57  61 SE9       30.24F
PIERRE         MOSUNNY   82  51  34 VRB7      30.16F
CUSTER         LGT RAIN  61  54  77 E5        30.35S
ELLSWORTH AFB  PTSUNNY   73  52  47 S12       30.24F
PHILIP         PTSUNNY   80  48  32 CALM      30.20F
PINE RIDGE     CLOUDY    69  61  75 NE6       30.25F
WINNER         FAIR      81  47  30 MISG      30.19F
$$

SDZ004>011-016>023-039-040-292200-
NORTHEAST SOUTH DAKOTA

CITY           SKY/WX    TMP DP  RH WIND       PRES   REMARKS
ABERDEEN       MOSUNNY   76  52  43 N7        30.16F
WATERTOWN      SUNNY     73  51  46 N8        30.18F
SISSETON         N/A     74  55  51 N7        30.15F
$$

SDZ017-020-022-023-036>040-048>070-292200-
SOUTHEAST SOUTH DAKOTA

CITY           SKY/WX    TMP DP  RH WIND       PRES   REMARKS
SIOUX FALLS    MOSUNNY   76  52  43 NW8       30.17F
HURON          SUNNY     78  51  38 NE10      30.16F
CHAMBERLAIN    MOSUNNY   78  50  38 NE5       30.18S
MITCHELL       MOSUNNY   78  52  40 MISG      30.17F
YANKTON        PTSUNNY   75  52  43 NW7       30.18F
$$

ABBREVIATIONS USED IN REMARKS
   TC - TEMPERATURE IN CELSIUS
  WCI - WIND CHILL INDEX
   HX - HEAT INDEX
  VSB - VISIBILITY




USA.gov is the U.S. government's official web portal to all federal, state and local government web resources and services.